Location: Lalanga
(4.5882°N, 32.9072°E)
Time: 18:39:16
(UTC+00:00)

NOSS 3-2 (A) - Pass Details

Date: 24 January 2020
Orbit: 809 x 1399 km, 63.4° (Epoch: 20 February)

Event Time Altitude Azimuth Distance (km) Brightness Sun altitude
Rises 16:47:01 0° 215° (SW) 3,351 7.3 -12.5°
Reaches altitude 10° 16:49:33 10° 221° (SW) 2,395 6.5 -13.1°
Maximum altitude 16:54:44 46° 294° (WNW) 1,072 4.1 -14.3°
Drops below altitude 10° 17:00:02 10° 7° (N) 2,446 5.4 -15.6°
Enters shadow 17:02:15 - 12° (NNE) 3,282 6.0 -16.1°
